Previsão horária em Bragança

Hoje, 17 Janeiro, Domingo

Tempo Temperatura Precipitação Vento Pressão Humidade
00:00 +1°C° 0 mm 0 m/s 722 mmHg 81%
01:00 0°C° 0 mm 0 m/s 722 mmHg 81%
02:00 0°C° 0 mm 0 m/s 722 mmHg 81%
03:00 0°C° 0 mm 0 m/s 721 mmHg 81%
04:00 0°C° 0 mm 0 m/s 721 mmHg 80%
05:00 0°C° 0 mm 0 m/s 721 mmHg 80%
06:00 0°C° 0 mm 0 m/s 721 mmHg 80%
07:00 +1°C° 0 mm 0 m/s 722 mmHg 77%
08:00 +2°C° 0 mm 0 m/s 722 mmHg 74%
09:00 +3°C° 0 mm 0 m/s 722 mmHg 71%
10:00 +5°C° 0 mm 0 m/s 722 mmHg 65%
11:00 +7°C° 0 mm 0 m/s 722 mmHg 59%
12:00 +9°C° 0 mm 0 m/s 723 mmHg 56%
13:00 +9°C° 0 mm 0 m/s 722 mmHg 56%
14:00 +10°C° 0 mm 0 m/s 722 mmHg 57%
15:00 +10°C° 0 mm 0 m/s 721 mmHg 58%
16:00 +8°C° 0 mm 0 m/s 721 mmHg 66%
17:00 +6°C° 0 mm 0 m/s 721 mmHg 74%
18:00 +4°C° 0 mm 0 m/s 721 mmHg 82%
19:00 +4°C° 0 mm 0 m/s 721 mmHg 82%
20:00 +4°C° 0 mm 0 m/s 721 mmHg 83%
21:00 +3°C° 0 mm 0 m/s 721 mmHg 84%
22:00 +3°C° 0 mm 0 m/s 721 mmHg 85%
23:00 +4°C° 0 mm 1 m/s 721 mmHg 85%

Amanhã, 18 Janeiro, Segunda-feira

Tempo Temperatura Precipitação Vento Pressão Humidade
00:00 +4°C° 0 mm 1 m/s 721 mmHg 85%
01:00 +3°C° 0 mm 1 m/s 720 mmHg 86%
02:00 +3°C° 0 mm 1 m/s 720 mmHg 86%
03:00 +3°C° 0 mm 1 m/s 720 mmHg 86%
04:00 +3°C° 0 mm 1 m/s 720 mmHg 86%
05:00 +3°C° 0 mm 1 m/s 720 mmHg 86%
06:00 +2°C° 0 mm 1 m/s 720 mmHg 87%
07:00 +3°C° 0 mm 1 m/s 720 mmHg 85%
08:00 +3°C° 0 mm 1 m/s 720 mmHg 84%
09:00 +4°C° 0 mm 1 m/s 720 mmHg 83%
10:00 +6°C° 0 mm 1 m/s 720 mmHg 76%
11:00 +8°C° 0 mm 1 m/s 720 mmHg 70%
12:00 +10°C° 0 mm 1 m/s 721 mmHg 64%
13:00 +11°C° 0 mm 1 m/s 720 mmHg 63%
14:00 +11°C° 0 mm 1 m/s 719 mmHg 63%
15:00 +12°C° 0 mm 1 m/s 718 mmHg 62%
16:00 +10°C° 0 mm 1 m/s 718 mmHg 70%
17:00 +8°C° 0 mm 1 m/s 718 mmHg 78%
18:00 +5°C° 0 mm 0 m/s 718 mmHg 85%
19:00 +5°C° 0 mm 0 m/s 718 mmHg 86%
20:00 +4°C° 0 mm 0 m/s 718 mmHg 87%
21:00 +4°C° 0 mm 0 m/s 718 mmHg 88%
22:00 +3°C° 0 mm 0 m/s 718 mmHg 88%
23:00 +4°C° 0 mm 1 m/s 718 mmHg 89%

Depois de amanhã, 19 Janeiro, Terça-feira

Tempo Temperatura Precipitação Vento Pressão Humidade
00:00 +4°C° 0 mm 1 m/s 719 mmHg 89%
01:00 +3°C° 0 mm 1 m/s 718 mmHg 90%
02:00 +2°C° 0 mm 0 m/s 718 mmHg 90%
03:00 +2°C° 0 mm 0 m/s 717 mmHg 90%
04:00 +2°C° 0 mm 1 m/s 717 mmHg 90%
05:00 +2°C° 0 mm 1 m/s 717 mmHg 90%
06:00 +2°C° 0 mm 1 m/s 716 mmHg 90%
07:00 +2°C° 0 mm 1 m/s 716 mmHg 88%
08:00 +3°C° 0 mm 1 m/s 716 mmHg 87%
09:00 +4°C° 0 mm 1 m/s 716 mmHg 85%
10:00 +5°C° 0 mm 1 m/s 716 mmHg 78%
11:00 +6°C° 0 mm 2 m/s 716 mmHg 72%
12:00 +8°C° 0 mm 2 m/s 716 mmHg 65%
13:00 +8°C° 0 mm 3 m/s 715 mmHg 65%
14:00 +8°C° 0 mm 3 m/s 714 mmHg 65%
15:00 +9°C° 0 mm 3 m/s 714 mmHg 64%
16:00 +7°C° 0 mm 3 m/s 713 mmHg 72%
17:00 +5°C° 0 mm 3 m/s 713 mmHg 79%
18:00 +4°C° 0 mm 3 m/s 712 mmHg 86%
19:00 +4°C° 0 mm 3 m/s 712 mmHg 87%
20:00 +4°C° 0 mm 3 m/s 712 mmHg 88%
21:00 +4°C° 0 mm 3 m/s 712 mmHg 89%
22:00 +4°C° 0 mm 3 m/s 711 mmHg 88%
23:00 +5°C° 0 mm 4 m/s 710 mmHg 87%

20 Janeiro, Quarta-feira

Tempo Temperatura Precipitação Vento Pressão Humidade
00:00 +5°C° 0 mm 4 m/s 710 mmHg 86%
01:00 +5°C° 0.4 mm 4 m/s 709 mmHg 87%
02:00 +5°C° 0.4 mm 5 m/s 708 mmHg 87%
03:00 +5°C° 0.4 mm 5 m/s 707 mmHg 88%
04:00 +6°C° 0.9 mm 5 m/s 706 mmHg 89%
05:00 +5°C° 0.9 mm 6 m/s 705 mmHg 90%
06:00 +5°C° 0.9 mm 6 m/s 704 mmHg 91%
07:00 +5°C° 1.4 mm 6 m/s 704 mmHg 92%
08:00 +5°C° 1.4 mm 6 m/s 703 mmHg 92%
09:00 +5°C° 1.4 mm 6 m/s 703 mmHg 93%
10:00 +7°C° 0.4 mm 5 m/s 703 mmHg 92%
11:00 +7°C° 0.4 mm 5 m/s 702 mmHg 92%
12:00 +7°C° 0.4 mm 5 m/s 702 mmHg 91%
13:00 +7°C° 0.8 mm 5 m/s 702 mmHg 92%
14:00 +7°C° 0.8 mm 5 m/s 701 mmHg 93%
15:00 +7°C° 0.8 mm 5 m/s 701 mmHg 94%
16:00 +7°C° 1 mm 5 m/s 701 mmHg 94%
17:00 +7°C° 1 mm 5 m/s 702 mmHg 93%
18:00 +7°C° 1 mm 5 m/s 702 mmHg 93%
19:00 +7°C° 0.2 mm 5 m/s 703 mmHg 93%
20:00 +7°C° 0.2 mm 5 m/s 703 mmHg 93%
21:00 +7°C° 0.2 mm 5 m/s 704 mmHg 93%
22:00 +7°C° 0.2 mm 5 m/s 704 mmHg 93%
23:00 +7°C° 0.2 mm 5 m/s 705 mmHg 93%

21 Janeiro, Quinta-feira

Tempo Temperatura Precipitação Vento Pressão Humidade
00:00 +7°C° 0.2 mm 5 m/s 705 mmHg 93%
01:00 +7°C° 0.1 mm 5 m/s 706 mmHg 93%
02:00 +7°C° 0.1 mm 5 m/s 706 mmHg 93%
03:00 +7°C° 0.1 mm 5 m/s 707 mmHg 93%
04:00 +7°C° 0.1 mm 5 m/s 707 mmHg 93%
05:00 +7°C° 0.1 mm 4 m/s 707 mmHg 93%
06:00 +6°C° 0.1 mm 4 m/s 707 mmHg 93%
07:00 +7°C° 0 mm 4 m/s 707 mmHg 93%
08:00 +7°C° 0 mm 5 m/s 707 mmHg 92%
09:00 +7°C° 0 mm 5 m/s 707 mmHg 92%
10:00 +7°C° 0.3 mm 6 m/s 706 mmHg 91%
11:00 +8°C° 0.3 mm 7 m/s 706 mmHg 90%
12:00 +7°C° 0.3 mm 8 m/s 706 mmHg 90%
13:00 +7°C° 1 mm 8 m/s 705 mmHg 90%
14:00 +7°C° 1 mm 9 m/s 705 mmHg 91%
15:00 +8°C° 1 mm 9 m/s 704 mmHg 92%
16:00 +7°C° 0.5 mm 8 m/s 705 mmHg 91%
17:00 +8°C° 0.5 mm 7 m/s 705 mmHg 89%
18:00 +8°C° 0.5 mm 6 m/s 705 mmHg 88%
19:00 +6°C° 0.2 mm 7 m/s 706 mmHg 89%
20:00 +6°C° 0.2 mm 7 m/s 706 mmHg 89%
21:00 +6°C° 0.2 mm 7 m/s 706 mmHg 90%
22:00 +7°C° 0.1 mm 6 m/s 707 mmHg 90%
23:00 +5°C° 0.1 mm 6 m/s 707 mmHg 90%

22 Janeiro, Sexta-feira

Tempo Temperatura Precipitação Vento Pressão Humidade
00:00 +6°C° 0.1 mm 5 m/s 707 mmHg 90%
01:00 +5°C° 0 mm 4 m/s 707 mmHg 91%
02:00 +4°C° 0 mm 4 m/s 707 mmHg 92%
03:00 +4°C° 0 mm 3 m/s 707 mmHg 94%
04:00 +4°C° 0.2 mm 3 m/s 707 mmHg 94%
05:00 +4°C° 0.2 mm 4 m/s 707 mmHg 94%
06:00 +5°C° 0.2 mm 4 m/s 707 mmHg 94%
07:00 +5°C° 0.5 mm 5 m/s 707 mmHg 92%
08:00 +5°C° 0.5 mm 5 m/s 708 mmHg 90%
09:00 +4°C° 0.5 mm 6 m/s 708 mmHg 88%
10:00 +4°C° 0.1 mm 7 m/s 709 mmHg 83%
11:00 +5°C° 0.1 mm 8 m/s 710 mmHg 77%
12:00 +5°C° 0.1 mm 9 m/s 710 mmHg 71%
13:00 +6°C° 0 mm 8 m/s 711 mmHg 68%
14:00 +6°C° 0 mm 7 m/s 711 mmHg 65%
15:00 +7°C° 0 mm 6 m/s 711 mmHg 61%
16:00 +6°C° 0 mm 5 m/s 712 mmHg 68%
17:00 +5°C° 0 mm 4 m/s 713 mmHg 75%
18:00 +4°C° 0 mm 3 m/s 713 mmHg 82%
19:00 +3°C° 0 mm 3 m/s 714 mmHg 86%
20:00 +4°C° 0 mm 2 m/s 715 mmHg 89%
21:00 +3°C° 0 mm 2 m/s 715 mmHg 93%
22:00 +3°C° 0 mm 2 m/s 715 mmHg 94%
23:00 +3°C° 0 mm 2 m/s 716 mmHg 94%
Mostrar mais

Necessitamos do seu Consentimento

A Meteoprog e os seus Fornecedores de Serviços podem armazenar e aceder a dados pessoais como cookies, identificadores do dispositivo ou outras tecnologias semelhantes existentes no seu dispositivo e processar estes dados para personalizar conteúdos e anúncios, assim como funcionalidades nas redes sociais e análise de tráfego.

  • Armazenar e/ou aceder a informações no seu dispositivo

    Os cookies, identificadores do dispositivo ou outras informações podem ser armazenados ou acedidos no seu dispositivo, para os fins acima indicados.

  • Anúncios e conteúdos personalizados, medição de anúncios e conteúdos, dados sobre o público-alvo e desenvolvimento de produtos

    Os anúncios e os conteúdos podem ser personalizados com base num perfil. Podem ser adicionados dados adicionais para uma maior personalização dos anúncios e dos conteúdos. A eficácia dos anúncios e dos conteúdos pode ser medida. Podem ser obtidas informações sobre o público que visualizou os anúncios e os conteúdos. Estes dados podem ser usados para desenvolver ou melhorar sistemas, softwares ou a experiência do utilizador.

Ao clicar em "Eu concordo”, permitirá o uso de cookies, identificadores do dispositivo e web beacons mencionados ou outras tecnologias semelhantes. As configurações do navegador do seu dispositivo podem ser alteradas.

Para certos fins, podem ser invocados interesses legítimos ao invés de consentimento. Pode ler mais informação sobre este assunto na nossa Política de Privacidade e Cookies.